Radioactive Concentration measured by Seawater Radiation Monitor near Fukushima Daiichi Nuclear Power Station
Date,Time,Cs137(Bq/L),Cs134(Bq/L),Total β(Bq/L)
2017/01/09,00:00,0.70,0.087,ND
2017/01/09,00:10,0.71,0.075,ND
2017/01/09,00:20,0.60,0.11,ND
2017/01/09,00:30,0.74,0.062,ND
2017/01/09,00:40,0.75,0.052,ND
2017/01/09,00:50,0.76,0.045,9.3
2017/01/09,01:00,0.74,0.051,ND
2017/01/09,01:10,0.71,0.061,ND
2017/01/09,01:20,0.72,0.062,ND
2017/01/09,01:30,0.71,0.074,ND
2017/01/09,01:40,0.73,0.081,ND
2017/01/09,01:50,0.71,0.077,9.7
2017/01/09,02:00,0.72,0.073,9.7
2017/01/09,02:10,0.75,0.065,12
2017/01/09,02:20,0.76,0.064,12
2017/01/09,02:30,0.77,0.070,13
2017/01/09,02:40,0.79,0.067,15
2017/01/09,02:50,0.77,0.074,17
2017/01/09,03:00,0.76,0.085,18
2017/01/09,03:10,0.75,0.096,17
2017/01/09,03:20,0.77,0.084,16
2017/01/09,03:30,0.77,0.084,15
2017/01/09,03:40,0.65,0.13,14
2017/01/09,03:50,0.66,0.12,12
2017/01/09,04:00,0.80,0.080,15
2017/01/09,04:10,0.81,0.081,16
2017/01/09,04:20,0.78,0.098,16
2017/01/09,04:30,0.75,0.099,15
2017/01/09,04:40,0.75,0.093,14
2017/01/09,04:50,0.77,0.088,17
2017/01/09,05:00,0.75,0.093,13
2017/01/09,05:10,0.75,0.088,14
2017/01/09,05:20,0.78,0.088,12
2017/01/09,05:30,0.79,0.084,12
2017/01/09,05:40,0.80,0.081,12
2017/01/09,05:50,0.79,0.089,11
2017/01/09,06:00,0.79,0.084,13
2017/01/09,06:10,0.77,0.086,11
2017/01/09,06:20,0.77,0.075,13
2017/01/09,06:30,0.77,0.074,11
2017/01/09,06:40,0.76,0.077,11
2017/01/09,06:50,0.79,0.074,9.6
2017/01/09,07:00,0.76,0.078,9.9
2017/01/09,07:10,0.64,0.11,ND
2017/01/09,07:20,0.77,0.088,ND
2017/01/09,07:30,0.78,0.085,11
2017/01/09,07:40,0.79,0.078,11
2017/01/09,07:50,0.77,0.076,12
2017/01/09,08:00,0.81,0.073,12
2017/01/09,08:10,0.70,0.11,17
2017/01/09,08:20,0.72,0.11,18
2017/01/09,08:30,0.83,0.073,19
2017/01/09,08:40,0.81,0.078,20
2017/01/09,08:50,0.81,0.084,21
2017/01/09,09:00,0.76,0.085,21
2017/01/09,09:10,0.76,0.088,16
2017/01/09,09:20,0.73,0.084,13
2017/01/09,09:30,0.74,0.075,10
2017/01/09,09:40,0.72,0.077,9.9
2017/01/09,09:50,0.71,0.078,ND
2017/01/09,10:00,0.73,0.073,ND
2017/01/09,10:10,0.73,0.067,11
2017/01/09,10:20,0.71,0.073,12
2017/01/09,10:30,0.70,0.072,13
2017/01/09,10:40,0.62,0.10,14
2017/01/09,10:50,0.73,0.067,13
2017/01/09,11:00,0.63,0.10,10
2017/01/09,11:10,0.65,0.10,ND
2017/01/09,11:20,0.68,0.089,11
2017/01/09,11:30,0.67,0.11,11
2017/01/09,11:40,0.66,0.11,11
2017/01/09,11:50,0.69,0.11,13
2017/01/09,12:00,0.81,0.060,13
2017/01/09,12:10,0.82,0.067,14
2017/01/09,12:20,0.81,0.074,13
2017/01/09,12:30,0.72,0.094,13
2017/01/09,12:40,0.84,0.056,12
2017/01/09,12:50,0.84,0.067,12
2017/01/09,13:00,0.85,0.067,14
2017/01/09,13:10,0.72,0.10,12
2017/01/09,13:20,0.73,0.11,12
2017/01/09,13:30,0.85,0.086,9.6
2017/01/09,13:40,0.85,0.087,8.9
2017/01/09,13:50,0.84,0.087,ND
2017/01/09,14:00,0.70,0.14,ND
2017/01/09,14:10,0.83,0.088,9.7
2017/01/09,14:20,0.81,0.092,10
2017/01/09,14:30,0.81,0.082,13
2017/01/09,14:40,0.79,0.086,11
2017/01/09,14:50,0.78,0.086,14
2017/01/09,15:00,0.80,0.071,11
2017/01/09,15:10,0.78,0.075,12
2017/01/09,15:20,0.79,0.075,12
2017/01/09,15:30,0.79,0.083,11
2017/01/09,15:40,0.80,0.082,13
2017/01/09,15:50,0.79,0.076,12
2017/01/09,16:00,0.78,0.089,14
2017/01/09,16:10,0.78,0.089,12
2017/01/09,16:20,0.76,0.088,12
2017/01/09,16:30,0.75,0.083,11
2017/01/09,16:40,0.77,0.084,11
2017/01/09,16:50,0.77,0.089,9.6
2017/01/09,17:00,0.81,0.084,ND
2017/01/09,17:10,0.84,0.080,ND
2017/01/09,17:20,0.85,0.079,ND
2017/01/09,17:30,0.69,0.11,8.8
2017/01/09,17:40,0.69,0.098,9.7
2017/01/09,17:50,0.82,0.072,10
2017/01/09,18:00,0.77,0.068,9.2
2017/01/09,18:10,0.71,0.078,13
2017/01/09,18:20,0.72,0.076,13
2017/01/09,18:30,0.72,0.088,12
2017/01/09,18:40,0.71,0.098,9.9
2017/01/09,18:50,0.70,0.096,10
2017/01/09,19:00,0.71,0.088,10
2017/01/09,19:10,0.75,0.070,ND
2017/01/09,19:20,0.78,0.057,ND
2017/01/09,19:30,0.78,0.057,ND
2017/01/09,19:40,0.79,0.048,ND
2017/01/09,19:50,0.80,0.043,ND
2017/01/09,20:00,0.81,0.045,ND
2017/01/09,20:10,0.76,0.062,ND
2017/01/09,20:20,0.73,0.064,ND
2017/01/09,20:30,0.75,0.049,ND
2017/01/09,20:40,0.75,0.046,ND
2017/01/09,20:50,0.75,0.043,9.6
2017/01/09,21:00,0.74,0.052,8.9
2017/01/09,21:10,0.76,0.046,10
2017/01/09,21:20,0.77,0.051,11
2017/01/09,21:30,0.73,0.060,9.3
2017/01/09,21:40,0.72,0.057,9.5
2017/01/09,21:50,0.70,0.057,9.5
2017/01/09,22:00,0.67,0.066,9.5
2017/01/09,22:10,0.67,0.060,11
2017/01/09,22:20,0.68,0.053,12
2017/01/09,22:30,0.69,0.054,15
2017/01/09,22:40,0.70,0.056,12
2017/01/09,22:50,0.73,0.042,12
2017/01/09,23:00,0.75,0.035,11
2017/01/09,23:10,0.77,0.038,12
2017/01/09,23:20,0.76,0.039,12
2017/01/09,23:30,0.74,0.047,11
2017/01/09,23:40,0.73,0.053,9.7
2017/01/09,23:50,0.73,0.058,13
